Total_Precipitation_Accumulation
0.03 0.11 0.25 0.34 0.61 1.20 1.21 0.87 0.48 0.31 0.30 0.37 0.41 0.40 0.50 0.58 0.68 1.15 0.82 0.62 0.39 0.39 0.57 0.65 0.62 0.52 0.50 0.54 0.57 0.55 0.50 0.48 0.54 0.53 0.54 0.57 0.56 0.53 0.56 0.66 0.73 0.82 0.86 0.87 0.94 0.89 0.81 0.63 0.53
0.04 0.12 0.25 0.34 0.86 1.46 1.18 0.81 0.44 0.32 0.25 0.38 0.48 0.41 0.56 0.52 0.29 0.38 0.57 0.53 0.33 0.29 0.38 0.42 0.47 0.43 0.38 0.36 0.40 0.49 0.50 0.50 0.56 0.62 0.70 0.74 0.76 0.73 0.71 0.74 0.74 0.81 0.83 0.81 0.83 0.76 0.65 0.52 0.45
0.04 0.10 0.22 0.35 0.87 1.06 0.81 0.56 0.32 0.28 0.21 0.26 0.39 0.33 0.46 0.61 0.39 0.38 0.45 0.40 0.29 0.25 0.31 0.36 0.33 0.29 0.29 0.29 0.31 0.42 0.51 0.54 0.55 0.62 0.71 0.80 0.94 0.91 0.88 0.86 0.91 0.92 0.83 0.72 0.65 0.62 0.51 0.43 0.43
0.03 0.08 0.17 0.31 0.57 0.59 0.44 0.38 0.29 0.27 0.24 0.23 0.33 0.43 0.59 0.49 0.39 0.43 0.42 0.42 0.28 0.23 0.25 0.25 0.28 0.28 0.29 0.28 0.30 0.37 0.47 0.51 0.53 0.57 0.69 0.76 0.93 1.01 0.98 0.94 0.97 0.88 0.70 0.59 0.51 0.47 0.42 0.41 0.44
0.02 0.07 0.18 0.26 0.33 0.41 0.37 0.33 0.27 0.28 0.25 0.30 0.40 0.68 0.95 0.69 0.45 0.45 0.47 0.44 0.36 0.28 0.25 0.23 0.26 0.26 0.27 0.28 0.32 0.36 0.39 0.45 0.44 0.44 0.52 0.64 0.76 0.91 0.89 0.86 0.84 0.70 0.59 0.52 0.44 0.40 0.41 0.45 0.47
0.01 0.04 0.14 0.17 0.23 0.29 0.30 0.25 0.25 0.23 0.26 0.39 0.56 0.81 0.94 0.80 0.68 0.70 0.73 0.63 0.61 0.45 0.33 0.30 0.32 0.28 0.27 0.28 0.32 0.33 0.34 0.37 0.40 0.37 0.43 0.55 0.66 0.73 0.75 0.73 0.72 0.61 0.52 0.44 0.40 0.40 0.42 0.45 0.47
0.01 0.03 0.06 0.10 0.15 0.19 0.23 0.20 0.21 0.22 0.31 0.49 0.66 0.97 1.01 1.07 0.99 0.91 1.06 1.15 0.95 0.69 0.51 0.43 0.37 0.31 0.31 0.34 0.34 0.32 0.32 0.39 0.41 0.39 0.45 0.57 0.62 0.68 0.70 0.71 0.70 0.66 0.54 0.43 0.38 0.38 0.38 0.41 0.43
0.01 0.03 0.06 0.06 0.09 0.15 0.14 0.16 0.17 0.22 0.36 0.45 0.61 0.99 1.21 1.06 1.11 1.14 1.33 1.46 1.37 0.97 0.74 0.58 0.55 0.52 0.44 0.37 0.39 0.40 0.39 0.43 0.47 0.49 0.54 0.63 0.65 0.68 0.74 0.71 0.71 0.69 0.64 0.56 0.53 0.45 0.39 0.41 0.43
0.01 0.03 0.05 0.05 0.06 0.11 0.09 0.14 0.19 0.17 0.23 0.39 0.57 0.85 0.92 0.85 0.98 1.11 1.33 1.50 1.68 1.44 1.03 0.81 0.73 0.69 0.66 0.55 0.50 0.56 0.57 0.60 0.62 0.71 0.75 0.84 0.84 0.80 0.97 0.92 0.96 0.86 0.85 0.81 0.77 0.68 0.60 0.55 0.53
0.01 0.02 0.03 0.03 0.04 0.05 0.07 0.12 0.17 0.15 0.34 0.61 0.73 0.82 0.73 0.85 0.95 1.15 1.29 1.37 1.53 1.62 1.20 1.05 0.85 0.74 0.76 0.85 1.01 1.00 0.85 0.90 1.00 1.15 1.22 1.46 1.46 1.36 1.13 1.21 1.33 1.38 1.47 1.38 1.33 1.27 1.00 0.84 0.79
0.00 0.01 0.02 0.02 0.02 0.03 0.07 0.07 0.13 0.17 0.49 0.96 1.11 1.11 1.00 0.96 1.09 1.33 1.55 1.58 1.47 1.54 1.30 1.20 1.15 1.09 0.98 1.11 1.26 1.29 1.23 1.29 1.33 1.40 1.50 1.65 1.44 1.33 1.27 1.32 1.54 1.66 1.77 1.72 1.89 1.92 1.60 1.54 1.55
0.00 0.01 0.01 0.01 0.01 0.03 0.06 0.07 0.12 0.21 0.50 0.79 1.07 1.04 1.16 1.12 1.20 1.44 1.74 1.90 1.89 1.99 1.70 1.53 1.56 1.43 1.31 1.29 1.40 1.43 1.43 1.37 1.42 1.57 1.52 1.65 1.73 1.68 1.65 1.76 1.77 1.86 2.03 2.37 2.19 2.36 2.25 2.08 1.96
0.00 0.00 0.01 0.01 0.01 0.03 0.05 0.12 0.15 0.24 0.37 0.57 0.82 0.82 0.87 1.17 1.53 1.90 2.24 2.23 2.37 2.53 2.44 2.14 1.89 1.69 1.63 1.75 1.73 1.63 1.65 1.61 1.70 1.86 1.81 1.83 2.00 2.04 2.07 2.04 2.06 1.90 2.08 2.44 2.55 2.42 2.63 2.70 2.51
0.00 0.00 0.01 0.02 0.02 0.04 0.06 0.17 0.26 0.35 0.44 0.50 0.77 1.00 1.04 1.38 1.71 2.25 2.88 2.77 2.55 2.72 2.81 2.60 2.37 2.19 2.15 2.27 2.31 2.17 1.96 2.05 2.12 2.10 1.97 2.02 2.24 2.46 2.52 2.38 2.33 2.18 2.19 2.41 2.54 2.55 3.06 2.99 2.85
0.00 0.01 0.02 0.05 0.06 0.09 0.13 0.32 0.48 0.50 0.48 0.56 0.86 1.17 1.40 1.56 1.88 2.21 2.57 2.88 3.01 3.10 3.02 2.95 2.87 2.76 2.78 2.72 2.66 2.46 2.36 2.21 2.23 2.29 2.33 2.30 2.30 2.55 2.63 2.62 2.50 2.41 2.35 2.51 2.56 2.77 3.04 2.79 2.67
0.01 0.02 0.05 0.09 0.10 0.12 0.19 0.55 0.57 0.48 0.50 0.82 1.02 1.35 1.62 1.71 1.98 2.37 2.70 3.20 3.43 3.46 3.43 3.39 3.23 3.23 3.22 3.14 3.02 2.85 2.69 2.42 2.23 2.24 2.38 2.40 2.42 2.55 2.66 2.50 2.39 2.60 2.68 2.76 2.93 3.03 3.06 2.93 2.83
0.03 0.04 0.08 0.11 0.12 0.11 0.19 0.42 0.55 0.51 0.71 0.99 1.23 1.54 1.82 2.07 2.53 2.99 3.22 3.34 3.67 3.95 4.07 4.04 3.98 3.77 3.52 3.42 3.39 3.42 3.31 2.97 2.62 2.52 2.52 2.51 2.36 2.39 2.57 2.46 2.53 2.71 2.81 2.86 2.64 3.05 3.03 3.03 2.93
0.04 0.05 0.11 0.15 0.14 0.14 0.23 0.38 0.50 0.58 0.81 1.20 1.56 1.82 2.06 2.44 2.95 3.29 3.55 3.89 4.03 4.25 4.64 4.51 4.37 4.30 4.20 4.09 3.82 3.80 3.55 3.23 3.04 2.91 2.91 2.71 2.55 2.52 2.71 2.55 2.62 2.74 2.89 2.91 2.91 3.10 3.07 2.90 2.86
0.05 0.08 0.13 0.17 0.15 0.18 0.33 0.52 0.56 0.74 1.04 1.33 1.63 1.87 2.19 2.49 2.91 3.36 3.44 3.66 3.95 4.53 4.88 4.93 5.04 4.90 4.61 4.19 3.75 3.56 3.46 3.40 3.21 2.98 2.79 2.66 2.60 2.70 2.93 2.77 2.91 2.89 2.76 2.77 2.92 3.10 2.91 2.68 2.79
0.06 0.10 0.14 0.17 0.15 0.16 0.31 0.52 0.63 0.98 1.30 1.32 1.43 1.56 1.77 2.20 2.60 2.94 3.11 3.19 3.57 4.15 4.55 4.65 4.42 4.28 4.11 3.84 3.70 3.66 3.85 3.54 3.22 3.02 2.78 2.59 2.57 2.66 2.60 2.72 2.61 2.65 2.77 2.75 2.80 3.00 2.82 2.42 2.56
0.05 0.07 0.11 0.16 0.16 0.23 0.34 0.64 0.84 1.09 1.23 1.24 1.31 1.41 1.57 1.91 2.24 2.56 2.67 2.83 3.04 3.11 3.36 3.51 3.66 3.55 3.43 3.39 3.37 3.39 3.57 3.31 3.03 2.83 2.70 2.44 2.32 2.30 2.34 2.37 2.45 2.70 2.70 2.69 2.78 2.78 2.64 2.30 2.29
0.06 0.07 0.06 0.08 0.16 0.29 0.43 0.95 1.18 1.11 1.17 1.31 1.33 1.34 1.59 1.89 1.88 1.99 2.19 2.37 2.61 2.72 2.90 2.96 2.99 3.08 3.08 3.13 3.03 2.86 2.74 2.60 2.47 2.47 2.43 2.39 2.29 2.21 2.18 2.18 2.24 2.31 2.29 2.37 2.20 2.29 2.42 2.45 2.26
0.05 0.05 0.06 0.10 0.19 0.30 0.43 0.75 1.12 1.44 1.51 1.32 1.29 1.21 1.39 1.54 1.45 1.43 1.60 1.74 1.95 2.11 2.34 2.50 2.61 2.69 2.78 2.82 2.72 2.67 2.46 2.43 2.44 2.39 2.39 2.29 2.20 2.16 2.12 2.07 2.06 1.98 1.95 2.06 2.04 2.15 2.20 2.19 2.16
0.04 0.06 0.12 0.24 0.42 0.65 0.56 0.69 1.07 1.42 1.67 1.41 1.23 1.16 1.24 1.20 1.18 1.31 1.42 1.51 1.63 1.84 2.00 2.15 2.30 2.35 2.47 2.51 2.51 2.46 2.38 2.39 2.35 2.29 2.24 2.17 2.15 2.04 1.98 1.95 1.96 1.88 1.87 1.92 1.96 2.02 1.99 2.03 2.09
0.06 0.13 0.45 0.81 1.10 1.13 0.72 0.78 1.13 1.13 1.16 1.16 1.13 1.17 1.16 1.08 1.02 1.04 1.15 1.28 1.43 1.61 1.72 1.79 1.93 2.01 2.03 2.06 2.11 2.09 2.15 2.25 2.10 1.99 1.99 1.95 1.80 1.66 1.66 1.64 1.71 1.70 1.75 1.78 1.84 1.86 1.87 1.97 2.05
0.10 0.15 0.50 0.77 0.82 0.92 0.81 1.08 1.42 1.13 1.04 0.97 1.04 1.13 1.09 0.95 0.88 0.92 1.03 1.07 1.13 1.27 1.47 1.53 1.66 1.76 1.89 1.92 1.89 1.88 1.87 1.88 1.76 1.79 1.74 1.70 1.52 1.41 1.53 1.64 1.67 1.69 1.71 1.71 1.83 1.73 1.72 1.86 1.92
0.15 0.17 0.23 0.44 0.49 0.70 0.90 1.19 1.36 1.04 0.99 1.08 1.19 1.19 1.13 0.89 0.75 0.75 0.78 0.84 0.85 0.93 1.06 1.21 1.48 1.62 1.70 1.76 1.75 1.66 1.59 1.60 1.58 1.61 1.70 1.64 1.60 1.45 1.53 1.59 1.67 1.70 1.78 1.84 1.87 1.75 1.85 2.02 1.94
0.15 0.16 0.19 0.36 0.54 0.74 0.87 1.24 1.53 1.39 1.27 1.25 1.31 1.15 0.88 0.71 0.59 0.57 0.59 0.61 0.67 0.73 0.82 0.97 1.19 1.29 1.39 1.53 1.56 1.40 1.49 1.57 1.56 1.53 1.45 1.45 1.47 1.47 1.42 1.43 1.48 1.48 1.54 1.66 1.73 1.68 1.81 2.00 1.96
0.19 0.21 0.28 0.40 0.44 0.65 1.00 1.21 1.14 1.15 1.13 1.19 1.16 0.98 0.73 0.60 0.52 0.53 0.55 0.58 0.63 0.68 0.78 0.94 1.15 1.30 1.30 1.36 1.43 1.40 1.45 1.55 1.56 1.49 1.40 1.39 1.39 1.43 1.37 1.33 1.33 1.33 1.29 1.35 1.47 1.50 1.69 1.71 1.70
0.17 0.19 0.28 0.42 0.42 0.46 0.70 0.90 0.65 0.70 0.73 0.79 0.83 0.71 0.61 0.58 0.54 0.60 0.65 0.66 0.65 0.74 0.83 0.95 1.09 1.27 1.32 1.39 1.53 1.62 1.56 1.52 1.51 1.46 1.35 1.27 1.22 1.25 1.30 1.36 1.27 1.18 1.23 1.30 1.31 1.39 1.55 1.61 1.58